[Iaude] MPEC C135: 2024 CY2 [a=1.47,e=0.27,i=7.2,H=25.4]

mpec at cfa.harvard.edu mpec at cfa.harvard.edu
Mon Feb 12 23:08:54 EST 2024


M.P.E.C. 2024-C135                            Issued 2024 February 13, 04:07 UT

     The Minor Planet Electronic Circulars contain information on unusual
         minor planets, routine data on comets and natural satellites,
         and occasional editorial announcements.  They are published
    on behalf of Division F of the International Astronomical Union by the
          Minor Planet Center, Smithsonian Astrophysical Observatory,
                          Cambridge, MA 02138, U.S.A.
			  
             Prepared using the Tamkin Foundation Computer Network

                              MPC at CFA.HARVARD.EDU
            URL https://www.minorplanetcenter.net/    ISSN 1523-6714

                                    2024 CY2                                    


Observations:
     K24C02Y* C2024 02 10.30099807 59 07.423+15 09 42.95         21.71wXEC135F52
     K24C02Y  C2024 02 10.31406807 59 10.244+15 10 32.37         21.78wXEC135F52
     K24C02Y  C2024 02 10.34020407 59 15.823+15 12 10.86         21.95wXEC135F52
     K24C02Y  C2024 02 11.41851008 03 33.765+16 17 54.39         21.97GVEC135F52
     K24C02Y  C2024 02 11.41932908 03 33.920+16 17 57.16         22.16GVEC135F52
     K24C02Y  C2024 02 11.48763108 03 48.529+16 21 57.96         21.74GVEC135F52
     K24C02Y KC2024 02 13.13709408 10 29.037+17 56 50.92         21.8 GVEC135H01
     K24C02Y  C2024 02 13.14442708 10 30.629+17 57 15.82         21.9 GVEC135H01
     K24C02Y  C2024 02 13.15283308 10 32.441+17 57 44.68         21.9 GVEC135H01
     K24C02Y  C2024 02 13.15745608 10 33.439+17 58 00.31         22.1 GVEC135H01

Observer details:
F52 Pan-STARRS 2, Haleakala.  Observers J. Herman, T. Lowe, P. Minguez, A.
    Schultz, I. Smith.  Measurers K. Chambers, T. de Boer, J. Fairlamb, H.
    Gao, M. Huber, C.-C. Lin, E. Magnier, Y. Ramanjooloo, R. Wainscoat, R.
    Weryk.  1.8-m Ritchey-Chretien + CCD.
H01 Magdalena Ridge Observatory, Socorro.  Observers W. H. Ryan, E. V. Ryan.
    Measurer W. H. Ryan.  2.4-m f/8.9 Ritchey-Chretien + CCD.

Orbital elements:
2024 CY2                                                 Earth MOID = 0.0973 AU
Epoch 2023 Sept. 13.0 TT = JDT 2460200.5                MPC                     
M 292.07515              (2000.0)            P               Q                  
n   0.55461608     Peri.  327.83835     -0.35813172     -0.93065048             
a   1.4671496      Node   142.99383     +0.88085857     -0.36342943             
e   0.2722356      Incl.    7.16202     +0.30956395     -0.04252928             
P   1.78           H   25.48          G   0.15           U   8                  
Residuals in seconds of arc
240210 F52  0.2-  0.0     240211 F52  0.2-  0.1-    240213 H01  0.0   0.1+
240210 F52  0.1+  0.1-    240211 F52  0.1+  0.0     240213 H01  0.0   0.0
240210 F52  0.3+  0.0     240213 H01  0.0   0.0
240211 F52  0.1+  0.1+    240213 H01  0.0   0.1-

Ephemeris:
2024 CY2                 a,e,i = 1.47, 0.27, 7                   q = 1.0677
Date    TT    R. A. (2000) Decl.     Delta      r    Elong.  Phase     V
2024 01 14    06 17 03.1 -15 48 39   0.1104  1.0677   137.6    38.4    22.4
...
2024 01 29    07 09 19.1 +00 32 26   0.1030  1.0761   151.1    26.3    21.9
...
2024 02 06    07 41 36.0 +10 24 05   0.1089  1.0868   156.6    21.1    21.9
...
2024 02 12    08 05 54.5 +16 52 18   0.1186  1.0975   157.4    20.2    22.1
2024 02 13    08 09 53.6 +17 49 32   0.1207  1.0995   157.2    20.3    22.1
2024 02 14    08 13 50.9 +18 44 24   0.1228  1.1015   157.0    20.5    22.2
...
2024 02 20    08 36 47.0 +23 22 31   0.1381  1.1149   154.7    22.3    22.5
...
2024 02 28    09 04 31.7 +27 24 59   0.1640  1.1357   150.3    25.6    23.0
...
2024 03 14    09 47 08.1 +30 04 47   0.2273  1.1821   142.2    31.0    24.0

A. U. Tomatic                (C) Copyright 2024 MPC           M.P.E.C. 2024-C135





More information about the Iaude mailing list